When you browse on this site, cookies collect data to enhance your experience and personalize the content and advertising you see.
Visit our Privacy Policy to learn more. By continuing to use the site, you agree to this use of cookies and data.
  • In Deutschland
  • Länderverzeichnis
  • Für 7 Tage
  • Wassertemperatur
  • Satellitenkarten
  • Wetterkarte
  • Widgets
  • user-avatar
    Anmelden

    Stündliche Wetter Bristol

    Heute, 16 Dezember, Sonntag

    Zeit Temperatur Niederschläge Wind Luftdruck Luftfeuchtigkeit
    00:00 +5°C° 0 mm 5 m/S 750 mmHg 86%
    01:00 +5°C° 0 mm 5 m/S 751 mmHg 87%
    02:00 +5°C° 0 mm 5 m/S 751 mmHg 88%
    03:00 +5°C° 0 mm 5 m/S 751 mmHg 89%
    04:00 +5°C° 0 mm 4 m/S 752 mmHg 89%
    05:00 +5°C° 0 mm 4 m/S 752 mmHg 89%
    06:00 +4°C° 0 mm 3 m/S 752 mmHg 90%
    07:00 +4°C° 0 mm 3 m/S 752 mmHg 90%
    08:00 +4°C° 0 mm 3 m/S 752 mmHg 90%
    09:00 +4°C° 0 mm 3 m/S 753 mmHg 90%
    10:00 +5°C° 0 mm 3 m/S 753 mmHg 88%
    11:00 +7°C° 0 mm 4 m/S 752 mmHg 85%
    12:00 +8°C° 0 mm 4 m/S 752 mmHg 83%
    13:00 +7°C° 0.7 mm 5 m/S 751 mmHg 86%
    14:00 +7°C° 0.7 mm 5 m/S 751 mmHg 88%
    15:00 +7°C° 0.7 mm 5 m/S 750 mmHg 91%
    16:00 +7°C° 1.4 mm 5 m/S 750 mmHg 92%
    17:00 +7°C° 1.4 mm 5 m/S 750 mmHg 93%
    18:00 +7°C° 1.4 mm 5 m/S 750 mmHg 94%
    19:00 +7°C° 0.1 mm 5 m/S 751 mmHg 92%
    20:00 +6°C° 0.1 mm 5 m/S 752 mmHg 90%
    21:00 +5°C° 0.1 mm 6 m/S 752 mmHg 88%
    22:00 +6°C° 0 mm 5 m/S 753 mmHg 88%
    23:00 +5°C° 0 mm 5 m/S 754 mmHg 88%

    Morgen, 17 Dezember, Montag

    Zeit Temperatur Niederschläge Wind Luftdruck Luftfeuchtigkeit
    00:00 +5°C° 0 mm 5 m/S 755 mmHg 88%
    01:00 +5°C° 0 mm 4 m/S 756 mmHg 88%
    02:00 +5°C° 0 mm 4 m/S 757 mmHg 89%
    03:00 +5°C° 0 mm 4 m/S 757 mmHg 89%
    04:00 +4°C° 0 mm 4 m/S 758 mmHg 89%
    05:00 +4°C° 0 mm 3 m/S 759 mmHg 90%
    06:00 +4°C° 0 mm 3 m/S 759 mmHg 90%
    07:00 +4°C° 0 mm 3 m/S 760 mmHg 90%
    08:00 +4°C° 0 mm 3 m/S 760 mmHg 90%
    09:00 +4°C° 0 mm 3 m/S 761 mmHg 90%
    10:00 +6°C° 0 mm 4 m/S 761 mmHg 86%
    11:00 +7°C° 0 mm 4 m/S 761 mmHg 83%
    12:00 +9°C° 0 mm 5 m/S 761 mmHg 80%
    13:00 +9°C° 0 mm 5 m/S 761 mmHg 82%
    14:00 +8°C° 0 mm 5 m/S 761 mmHg 84%
    15:00 +8°C° 0 mm 5 m/S 761 mmHg 85%
    16:00 +8°C° 0 mm 5 m/S 761 mmHg 87%
    17:00 +8°C° 0 mm 6 m/S 760 mmHg 89%
    18:00 +8°C° 0 mm 6 m/S 760 mmHg 91%
    19:00 +8°C° 0.1 mm 6 m/S 760 mmHg 91%
    20:00 +9°C° 0.1 mm 7 m/S 760 mmHg 91%
    21:00 +9°C° 0.1 mm 7 m/S 760 mmHg 90%
    22:00 +9°C° 0.1 mm 7 m/S 759 mmHg 90%
    23:00 +9°C° 0.1 mm 8 m/S 759 mmHg 89%

    übermorgen, 18 Dezember, Dienstag

    Zeit Temperatur Niederschläge Wind Luftdruck Luftfeuchtigkeit
    00:00 +10°C° 0.1 mm 8 m/S 759 mmHg 88%
    01:00 +10°C° 0.1 mm 8 m/S 758 mmHg 88%
    02:00 +10°C° 0.1 mm 8 m/S 758 mmHg 87%
    03:00 +10°C° 0.1 mm 9 m/S 757 mmHg 86%
    04:00 +8°C° 0.1 mm 9 m/S 756 mmHg 86%
    05:00 +8°C° 0.1 mm 9 m/S 756 mmHg 85%
    06:00 +8°C° 0.1 mm 9 m/S 755 mmHg 84%
    07:00 +8°C° 0.2 mm 10 m/S 754 mmHg 83%
    08:00 +8°C° 0.2 mm 10 m/S 753 mmHg 82%
    09:00 +7°C° 0.2 mm 11 m/S 752 mmHg 82%
    10:00 +7°C° 0.7 mm 11 m/S 751 mmHg 82%
    11:00 +7°C° 0.7 mm 11 m/S 751 mmHg 83%
    12:00 +7°C° 0.7 mm 11 m/S 750 mmHg 83%
    13:00 +7°C° 1.5 mm 11 m/S 749 mmHg 85%
    14:00 +7°C° 1.5 mm 10 m/S 749 mmHg 86%
    15:00 +7°C° 1.5 mm 10 m/S 748 mmHg 88%
    16:00 +7°C° 2.3 mm 9 m/S 748 mmHg 89%
    17:00 +8°C° 2.3 mm 7 m/S 748 mmHg 90%
    18:00 +8°C° 2.3 mm 6 m/S 748 mmHg 91%
    19:00 +7°C° 0.4 mm 5 m/S 748 mmHg 91%
    20:00 +7°C° 0.4 mm 5 m/S 749 mmHg 90%
    21:00 +6°C° 0.4 mm 4 m/S 749 mmHg 90%
    22:00 +6°C° 0 mm 4 m/S 750 mmHg 90%
    23:00 +6°C° 0 mm 4 m/S 750 mmHg 90%

    19 Dezember, Mittwoch

    Zeit Temperatur Niederschläge Wind Luftdruck Luftfeuchtigkeit
    00:00 +6°C° 0 mm 4 m/S 751 mmHg 90%
    01:00 +6°C° 0.2 mm 4 m/S 751 mmHg 91%
    02:00 +5°C° 0.2 mm 3 m/S 751 mmHg 91%
    03:00 +5°C° 0.2 mm 3 m/S 752 mmHg 91%
    04:00 +5°C° 0.1 mm 3 m/S 752 mmHg 91%
    05:00 +5°C° 0.1 mm 3 m/S 752 mmHg 91%
    06:00 +5°C° 0.1 mm 3 m/S 752 mmHg 90%
    07:00 +5°C° 0 mm 3 m/S 753 mmHg 90%
    08:00 +5°C° 0 mm 3 m/S 753 mmHg 89%
    09:00 +4°C° 0 mm 3 m/S 753 mmHg 88%
    10:00 +5°C° 0 mm 3 m/S 753 mmHg 85%
    11:00 +6°C° 0 mm 4 m/S 754 mmHg 81%
    12:00 +7°C° 0 mm 5 m/S 754 mmHg 78%
    13:00 +7°C° 0.1 mm 5 m/S 754 mmHg 79%
    14:00 +7°C° 0.1 mm 4 m/S 754 mmHg 80%
    15:00 +7°C° 0.1 mm 4 m/S 753 mmHg 81%
    16:00 +6°C° 0.1 mm 4 m/S 753 mmHg 83%
    17:00 +6°C° 0.1 mm 4 m/S 753 mmHg 84%
    18:00 +5°C° 0.1 mm 4 m/S 753 mmHg 86%
    19:00 +5°C° 0.2 mm 5 m/S 753 mmHg 86%
    20:00 +5°C° 0.2 mm 5 m/S 753 mmHg 86%
    21:00 +5°C° 0.2 mm 5 m/S 753 mmHg 86%
    22:00 +5°C° 0.2 mm 5 m/S 753 mmHg 86%
    23:00 +5°C° 0.2 mm 5 m/S 753 mmHg 86%

    20 Dezember, Donnerstag

    Zeit Temperatur Niederschläge Wind Luftdruck Luftfeuchtigkeit
    00:00 +5°C° 0.2 mm 5 m/S 753 mmHg 86%
    01:00 +5°C° 0.1 mm 5 m/S 753 mmHg 87%
    02:00 +5°C° 0.1 mm 5 m/S 753 mmHg 87%
    03:00 +5°C° 0.1 mm 5 m/S 753 mmHg 88%
    04:00 +5°C° 0.3 mm 5 m/S 753 mmHg 88%
    05:00 +5°C° 0.3 mm 5 m/S 753 mmHg 88%
    06:00 +4°C° 0.3 mm 6 m/S 753 mmHg 88%
    07:00 +5°C° 0.1 mm 6 m/S 753 mmHg 88%
    08:00 +5°C° 0.1 mm 6 m/S 754 mmHg 88%
    09:00 +6°C° 0.1 mm 5 m/S 754 mmHg 88%
    10:00 +5°C° 0.1 mm 6 m/S 754 mmHg 85%
    11:00 +7°C° 0.1 mm 6 m/S 755 mmHg 81%
    12:00 +8°C° 0.1 mm 7 m/S 755 mmHg 78%
    13:00 +8°C° 0.1 mm 6 m/S 755 mmHg 79%
    14:00 +8°C° 0.1 mm 5 m/S 755 mmHg 79%
    15:00 +7°C° 0.1 mm 5 m/S 755 mmHg 80%
    16:00 +7°C° 0.1 mm 5 m/S 755 mmHg 81%
    17:00 +7°C° 0.1 mm 4 m/S 756 mmHg 83%
    18:00 +6°C° 0.1 mm 4 m/S 756 mmHg 85%
    19:00 +6°C° 0.1 mm 4 m/S 756 mmHg 86%
    20:00 +6°C° 0.1 mm 4 m/S 756 mmHg 87%
    21:00 +6°C° 0.1 mm 4 m/S 756 mmHg 88%
    22:00 +5°C° 0 mm 3 m/S 756 mmHg 89%
    23:00 +5°C° 0 mm 3 m/S 756 mmHg 90%

    21 Dezember, Freitag

    Zeit Temperatur Niederschläge Wind Luftdruck Luftfeuchtigkeit
    00:00 +5°C° 0 mm 3 m/S 756 mmHg 90%
    01:00 +5°C° 0 mm 3 m/S 755 mmHg 90%
    02:00 +6°C° 0 mm 2 m/S 754 mmHg 91%
    03:00 +6°C° 0 mm 2 m/S 754 mmHg 91%
    04:00 +5°C° 1 mm 3 m/S 753 mmHg 92%
    05:00 +6°C° 1 mm 4 m/S 752 mmHg 93%
    06:00 +6°C° 1 mm 5 m/S 751 mmHg 95%
    07:00 +7°C° 0.5 mm 5 m/S 750 mmHg 95%
    08:00 +8°C° 0.5 mm 6 m/S 750 mmHg 95%
    09:00 +9°C° 0.5 mm 6 m/S 749 mmHg 95%
    10:00 +9°C° 0.1 mm 7 m/S 750 mmHg 91%
    11:00 +9°C° 0.1 mm 8 m/S 750 mmHg 86%
    12:00 +10°C° 0.1 mm 9 m/S 751 mmHg 81%
    13:00 +9°C° 0 mm 8 m/S 752 mmHg 81%
    14:00 +9°C° 0 mm 7 m/S 752 mmHg 81%
    15:00 +8°C° 0 mm 6 m/S 753 mmHg 82%
    16:00 +8°C° 0 mm 6 m/S 754 mmHg 85%
    17:00 +7°C° 0 mm 5 m/S 754 mmHg 88%
    18:00 +7°C° 0 mm 5 m/S 754 mmHg 92%
    19:00 +7°C° 0.4 mm 5 m/S 754 mmHg 92%
    20:00 +8°C° 0.4 mm 6 m/S 754 mmHg 91%
    21:00 +8°C° 0.4 mm 7 m/S 754 mmHg 91%
    22:00 +8°C° 0.3 mm 7 m/S 754 mmHg 89%
    23:00 +7°C° 0.3 mm 8 m/S 754 mmHg 87%
    Mehr zeigen